GW0751 Weather Reports


Display with metric or nautical units.
time (UTC)temp
F
wind
direction
speed
MPH
gust
MPH
rain 1hr
in
rain 24hr
in
rain mn
in
humidity
%
barometer
mb
20260905230200 77 203 6.0 6.0 0.00 0.00 0.02 49 1013.9
20260905225640 78 225 6.0 6.0 0.00 0.00 0.02 49 1013.9
20260905225120 78 248 5.0 5.0 0.00 0.00 0.02 49 1014.0
20260905224605 77 270 6.0 6.0 0.00 0.00 0.02 49 1014.0
20260905224045 77 248 5.0 5.0 0.00 0.00 0.02 50 1014.1
20260905223525 77 248 5.0 5.0 0.00 0.00 0.02 49 1014.1
20260905223005 77 293 5.0 5.0 0.00 0.00 0.02 50 1014.1
20260905222450 77 270 7.0 7.0 0.00 0.00 0.02 50 1014.1
20260905221931 78 270 6.0 6.0 0.00 0.00 0.02 50 1014.1
20260905221410 78 270 6.0 6.0 0.00 0.00 0.02 49 1014.1
20260905220850 80 225 6.0 6.0 0.00 0.00 0.02 46 1014.1
20260905220200 81 248 5.0 5.0 0.00 0.00 0.02 46 1014.1
20260905215640 80 158 5.0 5.0 0.00 0.00 0.02 47 1014.1
20260905215120 80 270 6.0 6.0 0.00 0.00 0.02 45 1014.0
20260905214600 82 225 5.0 5.0 0.00 0.00 0.02 42 1014.0
20260905214045 81 203 5.0 5.0 0.00 0.00 0.02 41 1014.0
20260905213525 82 248 5.0 5.0 0.00 0.00 0.02 42 1014.0
20260905212755 82 270 4.0 4.0 0.00 0.00 0.02 42 1013.9
20260905211715 80 248 6.0 6.0 0.00 0.00 0.02 40 1014.0
20260905211200 82 270 5.0 5.0 0.00 0.00 0.02 40 1014.0
20260905210640 82 225 5.0 5.0 0.00 0.00 0.02 40 1014.0
20260905210140 80 180 4.0 4.0 0.00 0.00 0.02 41 1014.1
20260905205620 81 248 5.0 5.0 0.00 0.00 0.02 40 1014.1
20260905205100 81 158 5.0 5.0 0.00 0.00 0.02 42 1014.1
20260905203505 80 225 5.0 5.0 0.00 0.00 0.02 44 1014.0
20260905202945 79 203 6.0 6.0 0.00 0.00 0.02 46 1014.0
20260905202410 80 248 6.0 6.0 0.00 0.00 0.02 46 1014.0
20260905201850 81 180 0.0 0.0 0.00 0.00 0.02 45 1014.0
20260905201330 82 68 0.0 0.0 0.01 0.00 0.02 47 1013.9
20260905200810 80 180 0.0 0.0 0.01 0.00 0.02 49 1013.9
20260905200255 82 135 0.0 0.0 0.01 0.00 0.02 48 1014.0
20260905195735 82 113 0.0 0.0 0.01 0.00 0.02 47 1014.0
20260905195215 82 158 0.0 0.0 0.01 0.00 0.02 48 1014.0
20260905194655 83 315 0.0 0.0 0.01 0.00 0.02 47 1014.0
20260905194140 84 225 0.0 0.0 0.01 0.00 0.02 47 1014.0
20260905193620 82 293 0.0 0.0 0.01 0.00 0.02 48 1014.0
20260905192025 81 135 0.0 0.0 0.01 0.00 0.02 48 1014.1
20260905191526 81 23 0.0 0.0 0.00 0.00 0.01 48 1014.2
20260905190445 83 113 0.0 0.0 0.00 0.00 0.01 45 1014.3
20260905185925 81 90 0.0 0.0 0.00 0.00 0.01 47 1014.3
20260905185410 80 248 0.0 0.0 0.00 0.00 0.01 49 1014.3
20260905184850 80 135 0.0 0.0 0.00 0.00 0.01 50 1014.3
20260905184330 80 0 0.0 0.0 0.00 0.00 0.01 49 1014.3
20260905183255 80 90 0.0 0.0 0.00 0.00 0.01 50 1014.4
20260905182735 79 180 0.0 0.0 0.00 0.00 0.01 52 1014.3
20260905182215 79 203 0.0 0.0 0.00 0.00 0.01 52 1014.3
20260905181655 78 270 0.0 0.0 0.00 0.00 0.01 52 1014.4
20260905181120 78 68 0.0 0.0 0.00 0.00 0.01 54 1014.4
20260905180540 76 270 0.0 0.0 0.00 0.00 0.01 54 1014.4
20260905180026 77 248 0.0 0.0 0.00 0.00 0.01 54 1014.4
20260905175505 75 225 0.0 0.0 0.00 0.00 0.01 55 1014.4
20260905174945 77 180 0.0 0.0 0.00 0.00 0.01 54 1014.5
20260905173910 75 180 0.0 0.0 0.00 0.00 0.01 55 1014.3
20260905173351 77 45 0.0 0.0 0.00 0.00 0.01 55 1014.3
20260905172830 77 158 0.0 0.0 0.00 0.00 0.01 56 1014.4
20260905172311 75 68 0.0 0.0 0.00 0.00 0.01 57 1014.4
20260905171756 73 113 0.0 0.0 0.00 0.00 0.01 58 1014.3
20260905170715 73 90 0.0 0.0 0.00 0.00 0.01 58 1014.3
20260905165640 71 45 0.0 0.0 0.01 0.00 0.01 60 1014.3
20260905165120 72 113 0.0 0.0 0.01 0.00 0.01 59 1014.2
20260905164541 71 45 0.0 0.0 0.01 0.00 0.01 59 1014.2
20260905164025 72 68 0.0 0.0 0.01 0.00 0.01 59 1014.2
20260905163505 71 23 0.0 0.0 0.01 0.00 0.01 60 1014.2
20260905162946 71 0 0.0 0.0 0.01 0.00 0.01 59 1014.1
20260905162426 72 90 0.0 0.0 0.01 0.00 0.01 58 1014.1
20260905161910 74 113 0.0 0.0 0.01 0.00 0.01 57 1014.1
20260905160831 71 113 0.0 0.0 0.01 0.00 0.01 62 1014.1
20260905160311 73 90 0.0 0.0 0.01 0.00 0.01 60 1014.2
20260905155756 69 135 0.0 0.0 0.00 0.00 0.00 68 1014.2
20260905155236 69 158 0.0 0.0 0.00 0.00 0.00 68 1014.1
20260905154716 68 225 0.0 0.0 0.00 0.00 0.00 71 1014.1
20260905153655 66 113 0.0 0.0 0.00 0.00 0.00 73 1014.0
20260905153140 65 68 0.0 0.0 0.00 0.00 0.00 75 1014.0
20260905152620 64 135 0.0 0.0 0.00 0.00 0.00 81 1014.0
20260905152041 63 90 0.0 0.0 0.00 0.00 0.00 84 1014.0
20260905151526 62 45 0.0 0.0 0.00 0.00 0.00 86 1013.9
20260905151005 60 90 0.0 0.0 0.00 0.00 0.00 97 1013.9
20260905150446 60 68 0.0 0.0 0.00 0.00 0.00 97 1013.7
20260905145926 60 45 0.0 0.0 0.00 0.00 0.00 97 1013.7
20260905145410 57 23 0.0 0.0 0.00 0.00 0.00 97 1013.7
20260905144851 55 225 0.0 0.0 0.00 0.00 0.00 97 1013.7
20260905144330 54 225 0.0 0.0 0.00 0.00 0.00 97 1013.7
20260905143811 53 248 0.0 0.0 0.00 0.00 0.00 97 1013.8
20260905143255 52 225 0.0 0.0 0.00 0.00 0.00 97 1013.8
20260905142735 51 248 0.0 0.0 0.00 0.00 0.00 97 1013.7
20260905142216 50 225 0.0 0.0 0.00 0.00 0.00 97 1013.7
20260905141656 49 248 0.0 0.0 0.00 0.00 0.00 97 1013.6
20260905141121 48 248 0.0 0.0 0.00 0.00 0.00 97 1013.6
20260905140026 48 225 0.0 0.0 0.00 0.00 0.00 97 1013.6
20260905135505 48 225 0.0 0.0 0.00 0.00 0.00 97 1013.6
20260905134945 48 225 0.0 0.0 0.00 0.00 0.00 97 1013.6
20260905133411 48 225 0.0 0.0 0.00 0.00 0.00 97 1013.4
20260905132850 48 225 0.0 0.0 0.00 0.00 0.00 97 1013.4
20260905131831 48 225 0.0 0.0 0.00 0.00 0.00 97 1013.3
20260905131310 48 225 0.0 0.0 0.00 0.00 0.00 97 1013.3
20260905130811 48 225 0.0 0.0 0.00 0.00 0.00 97 1013.3
20260905130255 48 248 0.0 0.0 0.00 0.00 0.00 97 1013.3
20260905124656 48 225 0.0 0.0 0.00 0.00 0.00 97 1013.1
20260905124140 48 225 0.0 0.0 0.00 0.00 0.00 97 1013.1
20260905123621 49 248 0.0 0.0 0.00 0.00 0.00 96 1013.1
20260905122526 49 248 0.0 0.0 0.00 0.00 0.00 96 1013.3
20260905122006 49 248 0.0 0.0 0.00 0.00 0.00 96 1013.3
20260905121446 49 225 0.0 0.0 0.00 0.00 0.00 96 1013.3
20260905120411 49 225 0.0 0.0 0.00 0.00 0.00 96 1013.4
20260905115851 49 248 0.0 0.0 0.00 0.00 0.00 96 1013.4
20260905114811 49 248 0.0 0.0 0.00 0.00 0.00 96 1013.4
20260905114256 49 248 0.0 0.0 0.00 0.00 0.00 96 1013.4
20260905112656 49 225 0.0 0.0 0.00 0.00 0.00 96 1013.4
20260905111041 49 248 0.0 0.0 0.00 0.00 0.00 96 1013.5
20260905110526 49 225 0.0 0.0 0.00 0.00 0.00 96 1013.5
20260905110006 49 225 0.0 0.0 0.00 0.00 0.00 96 1013.5
20260905105446 49 225 0.0 0.0 0.00 0.00 0.00 96 1013.5
20260905104926 49 225 0.0 0.0 0.00 0.00 0.00 96 1013.5
20260905104411 49 225 0.0 0.0 0.00 0.00 0.00 96 1013.5
20260905103851 49 225 0.0 0.0 0.00 0.00 0.00 96 1013.5
20260905103331 49 225 0.0 0.0 0.00 0.00 0.00 96 1013.5
20260905102811 50 225 0.0 0.0 0.00 0.00 0.00 96 1013.4
20260905100656 50 248 0.0 0.0 0.00 0.00 0.00 96 1013.4
20260905100141 50 248 0.0 0.0 0.00 0.00 0.00 96 1013.5
20260905095621 50 225 0.0 0.0 0.00 0.00 0.00 96 1013.5
20260905095041 50 248 0.0 0.0 0.00 0.00 0.00 96 1013.6
20260905094526 50 248 0.0 0.0 0.00 0.00 0.00 96 1013.6
20260905094006 50 248 0.0 0.0 0.00 0.00 0.00 96 1013.7
20260905093446 50 248 0.0 0.0 0.00 0.00 0.00 96 1013.7
20260905092926 50 248 0.0 0.0 0.00 0.00 0.00 96 1013.7
20260905091406 50 248 0.0 0.0 0.00 0.00 0.00 96 1013.7
20260905090851 50 248 0.0 0.0 0.00 0.00 0.00 96 1013.7
20260905090331 51 225 0.0 0.0 0.00 0.00 0.00 96 1013.8
20260905085811 51 225 0.0 0.0 0.00 0.00 0.00 96 1013.8
20260905085251 51 248 0.0 0.0 0.00 0.00 0.00 96 1013.9
20260905084751 51 248 0.0 0.0 0.00 0.00 0.00 96 1013.9
20260905084236 51 248 0.0 0.0 0.00 0.00 0.00 96 1013.9
20260905083716 51 225 0.0 0.0 0.00 0.00 0.00 96 1013.8
20260905083156 51 248 0.0 0.0 0.00 0.00 0.00 96 1013.8
20260905081541 51 225 0.0 0.0 0.00 0.00 0.00 95 1013.8
20260905081021 51 248 0.0 0.0 0.00 0.00 0.00 95 1013.8
20260905080506 51 248 0.0 0.0 0.00 0.00 0.00 95 1013.8
20260905075426 51 225 0.0 0.0 0.00 0.00 0.00 95 1013.8
20260905074352 51 225 0.0 0.0 0.00 0.00 0.00 95 1013.9
20260905073831 51 225 0.0 0.0 0.00 0.00 0.00 95 1013.9
20260905073311 51 225 0.0 0.0 0.00 0.00 0.00 95 1013.9
20260905072751 51 225 0.0 0.0 0.00 0.00 0.00 95 1013.9
20260905072236 51 225 0.0 0.0 0.00 0.00 0.00 95 1013.9
20260905071716 51 225 0.0 0.0 0.00 0.00 0.00 95 1013.8
20260905071216 51 248 0.0 0.0 0.00 0.00 0.00 94 1013.8
20260905070656 51 248 0.0 0.0 0.00 0.00 0.00 94 1013.8
20260905070137 52 225 0.0 0.0 0.00 0.00 0.00 94 1013.8
20260905065636 52 225 0.0 0.0 0.00 0.00 0.02 94 1013.8
20260905064621 52 225 0.0 0.0 0.00 0.00 0.02 94 1013.8
20260905064042 52 225 0.0 0.0 0.00 0.00 0.02 94 1013.7
20260905063522 52 225 0.0 0.0 0.00 0.00 0.02 94 1013.7
20260905063021 52 225 0.0 0.0 0.00 0.00 0.02 94 1013.7
20260905062521 53 203 0.0 0.0 0.00 0.00 0.02 94 1013.7
20260905061447 53 248 0.0 0.0 0.00 0.00 0.02 94 1013.7
20260905060946 53 248 0.0 0.0 0.00 0.00 0.02 94 1013.7
20260905060426 53 248 0.0 0.0 0.00 0.00 0.02 93 1013.8
20260905055926 53 248 0.0 0.0 0.00 0.00 0.02 93 1013.8
20260905055406 53 248 0.0 0.0 0.00 0.00 0.02 93 1013.9
20260905054332 53 225 0.0 0.0 0.00 0.00 0.02 93 1013.9
20260905053251 53 248 0.0 0.0 0.00 0.00 0.02 92 1013.9
20260905052737 54 248 0.0 0.0 0.00 0.00 0.02 92 1014.0
20260905052216 54 248 0.0 0.0 0.00 0.00 0.02 91 1014.0
20260905051656 54 225 0.0 0.0 0.00 0.00 0.02 91 1014.0
20260905050621 55 225 0.0 0.0 0.00 0.00 0.02 89 1014.1
20260905045541 55 225 0.0 0.0 0.00 0.00 0.02 87 1014.1
20260905045021 56 90 0.0 0.0 0.00 0.00 0.02 87 1014.0
20260905044506 56 225 0.0 0.0 0.00 0.00 0.02 87 1014.0
20260905043946 56 203 0.0 0.0 0.00 0.00 0.02 87 1013.9
20260905043426 56 203 2.0 2.0 0.00 0.00 0.02 86 1013.9
20260905042906 56 248 1.0 1.0 0.00 0.00 0.02 86 1013.7
20260905042351 56 225 2.0 2.0 0.00 0.00 0.02 86 1013.7
20260905041832 56 225 2.0 2.0 0.00 0.00 0.02 86 1013.7
20260905041311 56 225 2.0 2.0 0.00 0.00 0.02 86 1013.7
20260905040751 56 248 0.0 0.0 0.00 0.00 0.02 86 1013.7
20260905040237 57 293 0.0 0.0 0.00 0.00 0.02 84 1013.5
20260905035716 57 225 0.0 0.0 0.00 0.00 0.02 84 1013.5
20260905035156 57 113 1.0 1.0 0.00 0.00 0.02 84 1013.4
20260905034637 57 203 2.0 2.0 0.00 0.00 0.02 84 1013.4
20260905034121 57 225 3.0 3.0 0.00 0.00 0.02 84 1013.1
20260905033601 57 203 2.0 2.0 0.00 0.00 0.02 84 1013.1
20260905033042 57 225 3.0 3.0 0.00 0.00 0.02 83 1013.1
20260905032007 58 248 4.0 4.0 0.00 0.00 0.02 82 1013.1
20260905030927 58 270 3.0 3.0 0.00 0.00 0.02 81 1013.1
20260905030406 58 225 4.0 4.0 0.00 0.00 0.02 80 1013.1
20260905025852 58 225 3.0 3.0 0.00 0.00 0.02 80 1013.1
20260905025331 59 270 4.0 4.0 0.00 0.00 0.02 79 1013.1
20260905024811 59 203 3.0 3.0 0.00 0.00 0.02 78 1013.1
20260905024251 59 203 3.0 3.0 0.00 0.00 0.02 77 1013.1
20260905023237 60 293 3.0 3.0 0.00 0.00 0.02 76 1013.1
20260905022156 60 248 2.0 2.0 0.00 0.00 0.02 74 1013.1
20260905021636 61 225 4.0 4.0 0.00 0.00 0.02 73 1013.1
20260905021122 61 248 2.0 2.0 0.00 0.00 0.02 73 1013.1
20260905020602 61 293 4.0 4.0 0.00 0.00 0.02 72 1013.1
20260905015542 62 225 4.0 4.0 0.00 0.00 0.02 70 1013.1
20260905015042 62 270 4.0 4.0 0.00 0.00 0.02 69 1013.1
20260905014522 63 203 4.0 4.0 0.00 0.00 0.02 68 1013.1
20260905014006 63 203 4.0 4.0 0.00 0.00 0.02 66 1013.1
20260905013447 63 180 5.0 5.0 0.00 0.00 0.02 66 1013.1
20260905012926 63 225 5.0 5.0 0.00 0.00 0.02 65 1013.1
20260905012406 64 270 3.0 3.0 0.00 0.00 0.02 65 1013.1
20260905011852 64 338 5.0 5.0 0.00 0.00 0.02 65 1013.1
20260905011351 64 45 5.0 5.0 0.00 0.00 0.02 64 1013.1
20260905010832 65 203 7.0 7.0 0.00 0.00 0.02 63 1013.1
20260905010312 66 270 5.0 5.0 0.00 0.00 0.02 61 1013.1
20260905005237 68 270 4.0 4.0 0.00 0.00 0.02 57 1013.1
20260905003636 73 270 5.0 5.0 0.00 0.00 0.02 55 1013.1
20260905003116 73 225 5.0 5.0 0.00 0.00 0.02 55 1013.1
20260905002602 72 225 4.0 4.0 0.00 0.00 0.02 55 1013.1
20260905002041 72 270 6.0 6.0 0.00 0.00 0.02 55 1013.1
20260905001542 72 225 5.0 5.0 0.00 0.00 0.02 54 1013.1
20260905001022 73 225 7.0 7.0 0.00 0.00 0.02 54 1013.1
20260905000502 73 203 5.0 5.0 0.00 0.00 0.02 55 1013.1
20260904235946 73 248 6.0 6.0 0.00 0.00 0.02 54 1013.1
20260904235427 73 293 4.0 4.0 0.00 0.00 0.02 55 1013.1
20260904234907 73 270 6.0 6.0 0.00 0.00 0.02 54 1013.3
20260904234347 73 248 6.0 6.0 0.00 0.00 0.02 54 1013.3
20260904233832 74 203 4.0 4.0 0.00 0.00 0.02 54 1013.1
20260904233232 74 203 5.0 5.0 0.00 0.00 0.02 54 1013.1
20260904232717 73 270 7.0 7.0 0.00 0.00 0.02 53 1013.3
20260904231637 75 225 6.0 6.0 0.00 0.00 0.02 52 1013.3
20260904231041 74 293 4.0 4.0 0.00 0.00 0.02 53 1013.3